Facebook Twitter

Wetterstation Alicante

aktuelles Wetter
  Temperatur Wetter Niederschlag Luftdruck Wind
Do, 00:00 Uhr 21° - 0 mm 1019 hPa 5 km/h N
Mi, 23:00 Uhr 21° - 0 mm 1018.9 hPa 4 km/h NO
Mi, 22:00 Uhr 22° - 0 mm 1018.4 hPa 5 km/h NO
Mi, 21:00 Uhr 23° - 0 mm 1017.9 hPa 8 km/h O
Mi, 20:00 Uhr 24° - 0 mm 1017.4 hPa 8 km/h O
Mi, 19:00 Uhr 26° - 0 mm 1017.3 hPa 5 km/h O
Mi, 18:00 Uhr 27° - 0 mm 1017.6 hPa 8 km/h SO
Mi, 17:00 Uhr 27° - 0 mm 1017.7 hPa 9 km/h O
Mi, 16:00 Uhr 27° - 0 mm 1018 hPa 13 km/h O
Mi, 15:00 Uhr 26° - 0 mm 1018.4 hPa 11 km/h O
Mi, 14:00 Uhr 25° - 0 mm 1018.8 hPa 11 km/h O
Mi, 13:00 Uhr 25° - 0 mm 1019.3 hPa 15 km/h O
Mi, 12:00 Uhr 26° - 0 mm 1019.3 hPa 11 km/h O
Mi, 11:00 Uhr 25° - 0 mm 1019.1 hPa 5 km/h O
Mi, 10:00 Uhr 23° - 0 mm 1019.2 hPa 5 km/h NO
Mi, 09:00 Uhr 21° - 0 mm 1019.1 hPa 5 km/h O
Mi, 08:00 Uhr 19° - 0 mm 1018.9 hPa 5 km/h NO
Mi, 07:00 Uhr 18° - 0 mm 1018.3 hPa 4 km/h N
Mi, 06:00 Uhr 19° - 0 mm 1017.6 hPa 2 km/h NW
Mi, 05:00 Uhr 19° - 0 mm 1017.7 hPa 4 km/h N

Alle Zeitangaben MESZ